Home > Weather > Formosa > Past weeks

Flag for Argentina Weather for the Past 2 Weeks in Formosa, Formosa, Argentina

Now
70 °F

Sunny.


Feels Like: 70 °F
Forecast: 43 / 68 °F
Wind: 8 mph from East

Location: Formosa Aerodrome

Current Time: May 1, 2016 at 5:02:33 PM

Latest Report: May 1, 2016 at 4:00 PM


Visibility: 10 mi

Pressure: 30.04 "Hg

Humidity: 46%

Dew Point: 48 °F

Location of FormosaLocation

Historic Weather in Formosa — Graph

°F

Formosa Temperature Yesterday

Maximum temperature yesterday: 66 °F (at 3:00 PM)
Minimum temperature yesterday: 48 °F (at 5:00 AM)
Average temperature yesterday: 57 °F

High & Low Weather Summary for the Past Weeks

 TemperatureHumidityPressure
High95 °F (Apr 16, 4:00 PM)100% (Apr 21, 5:00 AM)30.33 "Hg (Apr 21, 5:00 AM)
Low45 °F (May 1, 6:00 AM)40% (Apr 28, 2:00 PM)29.56 "Hg (Apr 24, 4:00 PM)
Average70 °F79%29.94 "Hg
* Reported Apr 16 4:00 PM — May 1 4:00 PM, Formosa, Weather by CustomWeather, © 2016

Note: Actual official high and low records may vary slightly from our data, if they occured in-between our weather recording intervals... More about our weather records

Advertising

Formosa Weather History for the Previous 24 Hours

Scroll right to see more
 ConditionsComfort  
Time TempWeatherWind HumidityBarometerVisibility
4:00 PM
Sun, May 1
70 °FSunny.8 mph46%30.04 "Hg10 mi
3:00 PM70 °FSunny.9 mph46%30.07 "Hg10 mi
2:00 PM68 °FSunny.10 mph49%30.09 "Hg10 mi
1:00 PM68 °FSunny.10 mph46%30.12 "Hg10 mi
12:00 PM66 °FSunny.14 mph49%30.15 "Hg10 mi
11:00 AM63 °FSunny.16 mph52%30.18 "Hg10 mi
10:00 AM61 °FSunny.13 mph63%30.18 "Hg10 mi
9:00 AM55 °FSunny.10 mph72%30.15 "Hg10 mi
8:00 AM52 °FSunny.6 mph88%30.15 "Hg10 mi
7:00 AM46 °FSunny.6 mph87%30.15 "Hg10 mi
6:00 AM45 °FClear.2 mph93%30.15 "Hg10 mi
5:00 AM46 °FClear.No wind93%30.15 "Hg10 mi
4:00 AM50 °FClear.3 mph88%30.15 "Hg10 mi
3:00 AM50 °FClear.6 mph88%30.15 "Hg10 mi
2:00 AM52 °FClear.6 mph88%30.15 "Hg10 mi
1:00 AM52 °FClear.3 mph82%30.18 "Hg10 mi
12:00 AM52 °FClear.7 mph100%30.18 "Hg10 mi
11:00 PM
Sat, Apr 30
54 °FClear.7 mph77%30.21 "Hg10 mi
9:00 PM55 °FClear.5 mph77%30.21 "Hg10 mi
8:00 PM55 °FClear.6 mph77%30.18 "Hg10 mi
7:00 PM55 °FClear.5 mph94%30.18 "Hg10 mi
6:00 PM63 °FClear.7 mph56%30.18 "Hg10 mi
5:00 PM64 °FPassing clouds.3 mph52%30.18 "HgN/A
Weather by CustomWeather, © 2016

See weather overviewHow to use our weather pages